Weather in Saltillo

Mexico     25°25′50″N   100°59′48″W
temp.,
°C
wind,
m/s
gust,
m/s
humid.,
%
clouds,
%
prec.,
mm/h
press.,
hPa
HPBL,
m
28 may, sat
sat2801:00+21ese22390 0.0 1015132
04:00+20se22410 0.0 101491
07:00+18s22450 0.0 101584
10:00+24ssw11280 0.0 1015842
13:00+29n43160 0.0 10122431
16:00+31nne76150 0.0 10083102
19:00+29ne76190 0.0 10071361
22:00+24ese33280 0.0 1009169
29 may, sun
sun2901:00+22s34270 0.0 1010203
04:00+20s34331 0.0 1010128
07:00+19sse33400 0.0 101078
10:00+25s22290 0.0 1009663
13:00+30nnw32175 0.0 10072837
16:00+32nne97153 0.0 10043655
19:00+29ne65208 0.0 10031447
22:00+25ene34354 0.0 1005183
30 may, mon
mon3001:00+24s34375 0.0 1007158
04:00+22sse34400 0.0 1006124
07:00+21s33420 0.0 1007100
10:00+26sw23270 0.0 1008961
13:00+31nnw45180 0.0 10062994
16:00+31nne86226 0.0 10042945
19:00+29ene65270 0.1 10031906
22:00+25e34410 0.0 1006226
31 may, tue
tue3101:00+23e01455 0.0 1008144
04:00+21se12543 0.0 1007123
07:00+19sse12612 0.0 1009116
10:00+24nnw11430 0.0 1009767
13:00+28n64340 0.0 10081806
16:00+29nne86353 0.0 10061718
19:00+27ne66368 0.7 10061198
22:00+23ese46510 0.6 1009293
1 june, wed
wed101:00+21e22590 0.6 1011182
04:00+19ene11706 0.0 1011189
07:00+18e11759 0.0 1012130
10:00+21nne22572 0.0 1013803
13:00+26n54420 0.0 10121571
16:00+28nne75359 0.0 10082041
19:00+25ne66460 0.0 10081116
22:00+22ene34580 0.1 1010405